Regional Weather Roundup
Issued by NWS Raleigh/Durham, NC

Home | Current Version | Previous Version | Text Only | Print | Product List | Glossary On
Versions: 1 2 3 4 5 6 7 8 9 10 11 12 13 14 15 16 17 18 19 20 21 22 23 24 25 26 27 28 29 30 31 32 33 34 35 36 37 38 39 40 41 42 43 44 45 46 47 48 49 50
000
ASUS42 KRAH 241910
RWRRAH
NORTH CAROLINA WEATHER ROUNDUP
NATIONAL WEATHER SERVICE RALEIGH NC
200 PM EST TUE JAN 24 2017

NOTE: "FAIR" INDICATES FEW OR NO CLOUDS BELOW 12,000 FEET WITH NO
SIGNIFICANT WEATHER AND/OR OBSTRUCTIONS TO VISIBILITY.

NCZ001-053-055-056-065-067-242000-
WESTERN NORTH CAROLINA

CITY           SKY/WX    TMP DP  RH WIND       PRES   REMARKS
ASHEVILLE      SUNNY     48  36  63 N21G26    29.76F
JEFFERSON      PTSUNNY   41  34  77 NW23G37   29.69S
MORGANTON      SUNNY     58  37  45 NW17G23   29.74F
HICKORY        SUNNY     59  36  42 NW13      29.68F
RUTHERFORDTON  SUNNY     62  37  39 N8        29.70F
MOUNT AIRY     NOT AVBL
BOONE          CLOUDY    39  37  91 W28G39    29.72S WCI  28
$$

NCZ021-022-025-041-071-084-088-242000-
CENTRAL NORTH CAROLINA

CITY           SKY/WX    TMP DP  RH WIND       PRES   REMARKS
CHARLOTTE      MOSUNNY   65  39  38 NW10G20   29.68F
GREENSBORO     MOSUNNY   58  40  51 NW23G29   29.64S
WINSTON-SALEM  SUNNY     57  36  45 NW18G30   29.68R
RALEIGH-DURHAM MOSUNNY   60  37  42 NW14G28   29.62F
FORT BRAGG     MOSUNNY   64  39  40 NW17      29.62F
FAYETTEVILLE   PTSUNNY   65  41  41 NW13G23   29.63F
BURLINGTON     MOSUNNY   61  39  44 NW18      29.63S
LAURINBURG     MOSUNNY   65  40  39 NW15G26   29.66F
$$

NCZ011-015-027-028-043-044-047-080-103-242000-
NORTHEASTERN NORTH CAROLINA

CITY           SKY/WX    TMP DP  RH WIND       PRES   REMARKS
ROCKY MT-WILSO PTSUNNY   58  38  47 NW13G21   29.60S
GREENVILLE     MOSUNNY   55  36  47 NW9G18    29.63S
WASHINGTON     MOSUNNY   56  36  47 NW10G23     N/A
ELIZABETH CITY CLOUDY    50  35  56 NW17G28   29.55
MANTEO         MOSUNNY   50  37  62 NW14G21   29.54F
CAPE HATTERAS  SUNNY     52  37  56 NW15G25   29.54F
$$

NCZ078-087-090-091-093-098-101-242000-
SOUTHEASTERN NORTH CAROLINA

CITY           SKY/WX    TMP DP  RH WIND       PRES   REMARKS
LUMBERTON      MOSUNNY   63  43  48 NW14G25   29.64F
GOLDSBORO      MOSUNNY   59  38  46 NW9       29.59F
KINSTON        CLOUDY    57  37  47 NW13G20   29.62R
KENANSVILLE    PTSUNNY   57  41  54 W7        29.62F
NEW BERN       PTSUNNY   55  37  50 NW16G24   29.60S
CHERRY POINT   PTSUNNY   56  37  49 NW16      29.60S
BEAUFORT       PTSUNNY   57  41  55 NW16      29.59R
JACKSONVILLE   PTSUNNY   59  42  53 NW12G26   29.60S
WILMINGTON     MOSUNNY   61  43  51 NW21G29   29.62F
$$




USA.gov is the U.S. government's official web portal to all federal, state and local government web resources and services.